| time (UTC) | temp C | wind direction | speed KPH | gust KPH | rain 1hr cm | rain 24hr cm | rain mn cm | humidity % | barometer mb |
| 20260506102230 | 10 | 22 | 0.0 | 0.0 | 0.00 | 0.00 | 0.00 | 99 | 1020.2 |
| 20260506100727 | 10 | 21 | 0.0 | 0.0 | 0.00 | 0.00 | 0.00 | 99 | 1020.1 |
| 20260506095226 | 10 | 23 | 0.0 | 0.0 | 0.00 | 0.00 | 0.00 | 99 | 1019.8 |
| 20260506093725 | 11 | 29 | 0.0 | 0.0 | 0.00 | 0.00 | 0.00 | 99 | 1019.7 |
| 20260506092223 | 11 | 24 | 0.0 | 0.0 | 0.00 | 0.00 | 0.00 | 99 | 1019.6 |
| 20260506090721 | 11 | 37 | 0.0 | 0.0 | 0.00 | 0.00 | 0.00 | 99 | 1019.5 |
| 20260506085217 | 11 | 6 | 0.0 | 1.6 | 0.00 | 0.00 | 0.00 | 98 | 1019.2 |
| 20260506083713 | 11 | 180 | 3.2 | 3.2 | 0.00 | 0.00 | 0.00 | 98 | 1019.0 |
| 20260506082208 | 11 | 117 | 0.0 | 0.0 | 0.00 | 0.00 | 0.00 | 98 | 1019.1 |
| 20260506080707 | 11 | 29 | 0.0 | 0.0 | 0.00 | 0.00 | 0.00 | 96 | 1019.1 |
| 20260506072159 | 11 | 1 | 0.0 | 0.0 | 0.00 | 0.00 | 0.00 | 98 | 1018.6 |
| 20260506070657 | 11 | 27 | 0.0 | 0.0 | 0.00 | 0.00 | 0.00 | 97 | 1018.4 |
| 20260506062148 | 11 | 37 | 0.0 | 0.0 | 0.00 | 0.00 | 0.00 | 97 | 1018.1 |
| 20260506060646 | 12 | 37 | 0.0 | 0.0 | 0.00 | 0.00 | 0.00 | 96 | 1018.1 |
| 20260506050637 | 12 | 30 | 0.0 | 0.0 | 0.00 | 0.00 | 0.00 | 97 | 1017.8 |
| 20260506045132 | 12 | 30 | 0.0 | 0.0 | 0.00 | 0.00 | 0.00 | 96 | 1017.6 |
| 20260506043630 | 13 | 31 | 0.0 | 0.0 | 0.00 | 0.00 | 0.00 | 95 | 1017.5 |
| 20260506042131 | 13 | 29 | 0.0 | 0.0 | 0.00 | 0.00 | 0.00 | 93 | 1017.7 |
| 20260506040629 | 13 | 28 | 0.0 | 0.0 | 0.00 | 0.00 | 0.00 | 92 | 1017.4 |
| 20260506035125 | 14 | 28 | 0.0 | 0.0 | 0.00 | 0.00 | 0.00 | 90 | 1017.3 |
| 20260506033622 | 15 | 28 | 0.0 | 0.0 | 0.00 | 0.00 | 0.00 | 87 | 1017.2 |
| 20260506032119 | 16 | 26 | 0.0 | 0.0 | 0.00 | 0.00 | 0.00 | 84 | 1016.9 |
| 20260506030618 | 16 | 26 | 0.0 | 0.0 | 0.00 | 0.00 | 0.00 | 80 | 1016.8 |
| 20260506025113 | 17 | 21 | 1.6 | 1.6 | 0.00 | 0.00 | 0.00 | 76 | 1016.8 |
| 20260506023608 | 18 | 20 | 1.6 | 3.2 | 0.00 | 0.00 | 0.00 | 74 | 1017.0 |
| 20260506022107 | 18 | 17 | 1.6 | 3.2 | 0.00 | 0.00 | 0.00 | 72 | 1016.6 |
| 20260506020604 | 18 | 27 | 4.8 | 4.8 | 0.00 | 0.00 | 0.00 | 71 | 1016.5 |
| 20260506015101 | 19 | 27 | 4.8 | 4.8 | 0.00 | 0.00 | 0.00 | 69 | 1016.7 |
| 20260506013559 | 20 | 91 | 3.2 | 3.2 | 0.00 | 0.00 | 0.00 | 67 | 1016.6 |
| 20260506012054 | 20 | 17 | 3.2 | 3.2 | 0.00 | 0.00 | 0.00 | 67 | 1016.7 |
| 20260506010553 | 20 | 35 | 1.6 | 1.6 | 0.00 | 0.00 | 0.00 | 66 | 1016.8 |
| 20260506005048 | 21 | 41 | 1.6 | 1.6 | 0.00 | 0.00 | 0.00 | 62 | 1016.9 |
| 20260506003545 | 21 | 31 | 3.2 | 3.2 | 0.00 | 0.00 | 0.00 | 64 | 1016.8 |
| 20260506002045 | 21 | 18 | 1.6 | 1.6 | 0.00 | 0.00 | 0.00 | 60 | 1016.9 |
| 20260506000541 | 21 | 37 | 4.8 | 4.8 | 0.00 | 0.00 | 0.00 | 60 | 1017.1 |
| 20260505235039 | 22 | 30 | 3.2 | 3.2 | 0.00 | 0.00 | 0.00 | 61 | 1017.2 |
| 20260505233536 | 22 | 38 | 6.4 | 8.0 | 0.00 | 0.00 | 0.00 | 57 | 1017.2 |
| 20260505232034 | 22 | 13 | 4.8 | 4.8 | 0.00 | 0.00 | 0.00 | 54 | 1017.2 |
| 20260505230533 | 22 | 48 | 1.6 | 3.2 | 0.00 | 0.00 | 0.00 | 54 | 1017.5 |
| 20260505225033 | 21 | 264 | 1.6 | 1.6 | 0.00 | 0.00 | 0.00 | 56 | 1017.6 |
| 20260505223530 | 21 | 18 | 3.2 | 3.2 | 0.00 | 0.00 | 0.00 | 57 | 1017.7 |
| 20260505222025 | 22 | 29 | 4.8 | 4.8 | 0.00 | 0.00 | 0.00 | 57 | 1017.8 |
| 20260505220522 | 22 | 14 | 4.8 | 8.0 | 0.00 | 0.00 | 0.00 | 58 | 1017.7 |
| 20260505215020 | 22 | 17 | 1.6 | 1.6 | 0.00 | 0.00 | 0.00 | 58 | 1018.0 |
| 20260505213519 | 21 | 35 | 4.8 | 4.8 | 0.00 | 0.00 | 0.00 | 60 | 1018.3 |
| 20260505212014 | 22 | 88 | 1.6 | 3.2 | 0.00 | 0.00 | 0.00 | 59 | 1018.1 |
| 20260505210510 | 22 | 35 | 6.4 | 8.0 | 0.00 | 0.00 | 0.00 | 61 | 1018.3 |
| 20260505205008 | 21 | 8 | 4.8 | 8.0 | 0.00 | 0.00 | 0.00 | 64 | 1018.3 |
| 20260505203505 | 21 | 34 | 4.8 | 4.8 | 0.00 | 0.00 | 0.00 | 61 | 1018.5 |
| 20260505202000 | 21 | 9 | 1.6 | 1.6 | 0.00 | 0.00 | 0.00 | 61 | 1018.5 |
| 20260505200458 | 20 | 46 | 6.4 | 9.7 | 0.00 | 0.00 | 0.00 | 67 | 1018.6 |
| 20260505194954 | 20 | 29 | 3.2 | 4.8 | 0.00 | 0.00 | 0.00 | 70 | 1018.3 |
| 20260505193449 | 20 | 35 | 3.2 | 4.8 | 0.00 | 0.00 | 0.00 | 68 | 1018.5 |
| 20260505191948 | 19 | 32 | 4.8 | 4.8 | 0.00 | 0.00 | 0.00 | 70 | 1018.6 |
| 20260505190444 | 19 | 27 | 3.2 | 4.8 | 0.00 | 0.00 | 0.00 | 71 | 1018.6 |
| 20260505184939 | 19 | 31 | 6.4 | 8.0 | 0.00 | 0.00 | 0.00 | 70 | 1018.4 |
| 20260505183436 | 20 | 32 | 4.8 | 8.0 | 0.00 | 0.00 | 0.00 | 70 | 1018.4 |
| 20260505181932 | 19 | 40 | 3.2 | 3.2 | 0.00 | 0.00 | 0.00 | 68 | 1018.5 |
| 20260505180428 | 18 | 45 | 1.6 | 3.2 | 0.00 | 0.00 | 0.00 | 72 | 1018.3 |
| 20260505174923 | 19 | 46 | 4.8 | 4.8 | 0.00 | 0.00 | 0.00 | 71 | 1018.3 |
| 20260505173420 | 18 | 8 | 3.2 | 3.2 | 0.00 | 0.00 | 0.00 | 73 | 1018.2 |
| 20260505171914 | 18 | 58 | 3.2 | 3.2 | 0.00 | 0.00 | 0.00 | 71 | 1018.2 |
| 20260505170411 | 18 | 58 | 3.2 | 4.8 | 0.00 | 0.00 | 0.00 | 70 | 1018.2 |
| 20260505164909 | 18 | 25 | 4.8 | 4.8 | 0.00 | 0.00 | 0.00 | 73 | 1018.2 |
| 20260505163409 | 18 | 24 | 1.6 | 3.2 | 0.00 | 0.00 | 0.00 | 74 | 1018.1 |
| 20260505161906 | 17 | 25 | 1.6 | 1.6 | 0.00 | 0.00 | 0.00 | 76 | 1018.2 |
| 20260505160404 | 17 | 354 | 3.2 | 3.2 | 0.00 | 0.00 | 0.00 | 74 | 1018.2 |
| 20260505153354 | 16 | 4 | 4.8 | 4.8 | 0.00 | 0.00 | 0.00 | 77 | 1018.0 |
| 20260505151849 | 16 | 31 | 1.6 | 1.6 | 0.00 | 0.00 | 0.00 | 81 | 1017.7 |
| 20260505150346 | 14 | 34 | 0.0 | 0.0 | 0.00 | 0.00 | 0.00 | 84 | 1017.9 |
| 20260505140334 | 11 | 52 | 0.0 | 1.6 | 0.00 | 0.00 | 0.00 | 89 | 1017.3 |
| 20260505124817 | 10 | 184 | 1.6 | 1.6 | 0.00 | 0.00 | 0.00 | 92 | 1016.2 |
| 20260505123312 | 10 | 296 | 1.6 | 1.6 | 0.00 | 0.00 | 0.00 | 92 | 1016.4 |
| 20260505121808 | 10 | 193 | 3.2 | 3.2 | 0.00 | 0.00 | 0.00 | 92 | 1016.0 |
| 20260505120303 | 10 | 356 | 1.6 | 1.6 | 0.00 | 0.00 | 0.00 | 92 | 1015.9 |
| 20260505114802 | 11 | 4 | 0.0 | 1.6 | 0.00 | 0.00 | 0.00 | 90 | 1015.9 |
| 20260505113258 | 11 | 8 | 0.0 | 0.0 | 0.00 | 0.00 | 0.00 | 89 | 1015.7 |
| 20260505111758 | 11 | 358 | 0.0 | 1.6 | 0.00 | 0.00 | 0.00 | 89 | 1015.6 |
| 20260505110254 | 11 | 258 | 1.6 | 1.6 | 0.00 | 0.00 | 0.00 | 88 | 1015.6 |